RH
90 88 86 81 73 68 68 70 67 63 62 66 69 66 62 66 75 74 63 61 63 60 58 57 54 54 57 59 61 61 61 62 66 70 72 73 74 76 78 79 77 74 72 74 79 83 80 72 66 67 69 64 51 33 21 18 13 8 7 7 5 4 4 4 5 6 8 11 14 18 20 22 23 27 37 51 58 57 50 44 42 45 52 55 54 53 48
92 90 89 85 78 73 71 71 73 72 69 69 72 70 67 70 71 67 64 63 61 57 57 56 56 57 58 57 57 56 52 54 62 71 75 76 77 77 75 72 71 73 77 81 84 83 77 72 70 71 69 58 42 26 19 17 12 8 7 7 5 4 4 5 5 6 8 10 13 16 17 19 20 20 24 34 45 55 56 51 45 44 53 60 59 57 55
92 88 90 91 88 84 81 76 75 76 74 73 72 68 66 68 67 64 63 61 57 55 57 58 58 58 58 56 55 51 46 50 64 76 78 76 73 70 68 70 74 80 83 84 84 81 76 74 74 72 63 48 32 21 18 15 10 7 7 6 5 4 4 4 5 6 8 10 11 13 14 15 17 16 17 21 28 42 52 56 52 45 49 63 67 63 60
90 79 81 86 88 91 90 81 75 74 74 72 69 66 65 64 62 60 60 58 56 57 58 58 57 58 57 55 52 48 46 53 68 75 72 70 69 69 73 78 82 84 84 84 82 78 75 76 75 66 52 36 25 19 17 12 8 7 7 5 4 4 4 4 5 7 9 10 10 11 10 11 12 13 14 15 17 25 37 49 55 50 46 53 64 68 65
92 79 79 82 87 95 92 77 68 66 66 64 63 64 64 61 60 59 59 57 57 58 59 58 59 59 57 54 53 51 51 55 63 65 64 68 72 76 80 83 84 85 85 83 79 77 78 77 69 55 40 27 21 18 13 10 8 7 6 5 4 4 4 5 6 7 9 9 8 8 7 7 8 9 10 11 13 16 22 32 44 51 50 48 52 62 68
97 89 88 90 96 96 82 65 61 63 62 61 60 62 62 62 61 61 60 58 58 59 61 62 62 61 58 55 54 54 54 56 60 63 66 70 74 77 80 82 84 84 83 80 79 80 79 71 58 43 30 21 18 15 10 8 8 7 5 5 4 4 5 5 6 7 8 7 6 6 6 6 6 8 9 9 10 11 14 19 27 38 49 51 48 51 59
99 95 96 99 97 84 69 64 65 63 60 60 60 59 59 59 58 58 57 57 57 62 66 66 64 61 57 54 54 55 58 60 63 66 68 71 74 76 79 81 82 82 81 81 82 81 74 62 48 34 24 19 16 12 9 8 7 6 5 5 5 5 6 6 7 7 7 6 6 7 8 8 6 6 7 9 11 11 11 14 17 22 34 47 51 48 49
98 99 99 97 85 70 65 69 68 63 59 60 60 59 58 58 59 60 59 60 63 66 67 66 63 60 56 54 55 59 63 66 68 69 71 73 75 77 78 79 80 80 81 82 82 77 68 55 42 28 20 17 14 10 9 8 7 6 5 4 5 6 6 7 9 10 9 8 8 8 9 8 8 8 8 10 13 14 13 14 16 18 21 32 45 50 48
97 99 98 92 84 77 71 68 68 69 69 69 69 67 64 64 65 66 66 67 69 68 67 65 63 60 59 60 62 65 70 73 75 75 76 76 75 75 78 79 80 82 83 83 79 73 63 50 35 24 18 15 12 9 8 7 6 5 5 5 6 6 7 11 15 16 14 11 9 10 11 10 11 13 14 14 14 15 16 17 20 24 25 27 34 43 47
98 100 99 97 96 91 81 73 73 75 76 78 80 75 70 69 69 70 71 72 72 70 70 70 68 68 68 68 70 75 79 79 78 77 75 73 71 74 78 81 84 86 85 83 78 70 59 44 29 21 17 13 11 9 8 7 6 5 6 6 6 8 13 18 20 20 17 13 11 12 14 15 15 17 20 21 21 23 25 26 30 38 44 46 44 43 45
99 99 99 97 93 87 82 83 84 84 85 87 88 85 77 72 71 73 75 75 76 75 75 76 76 77 78 78 80 84 84 79 77 75 73 72 72 75 80 85 88 87 85 83 78 67 53 38 27 21 17 13 10 9 8 7 6 6 7 7 7 10 15 18 19 17 14 12 12 14 17 18 20 23 28 32 35 38 42 43 45 49 57 64 66 62 57
98 100 100 97 89 82 84 88 90 91 90 90 92 92 85 77 77 80 81 79 80 82 83 83 82 82 83 85 86 86 84 80 77 74 72 75 78 80 84 87 87 86 85 85 78 65 51 41 32 24 18 13 10 9 7 7 7 8 9 9 9 12 15 16 16 16 14 14 14 16 19 21 24 30 38 45 50 53 56 57 56 57 59 63 66 65 63
98 99 99 97 89 81 83 87 89 90 91 92 93 93 88 86 87 88 86 82 82 85 87 87 84 83 85 86 84 84 84 80 77 75 74 75 78 83 86 85 82 83 86 86 78 67 57 50 41 29 20 14 10 8 8 8 8 9 11 12 14 17 19 19 18 17 17 16 16 18 22 25 31 39 49 58 63 65 67 68 66 63 61 60 60 59 58
100 99 100 99 91 83 83 86 86 86 90 96 96 91 90 91 90 88 85 81 80 85 88 87 84 82 83 83 82 84 85 81 79 80 79 76 77 82 85 82 81 84 86 84 79 72 66 59 48 34 21 13 10 9 8 8 9 10 13 16 20 23 24 21 19 19 20 19 19 22 27 32 39 48 58 68 74 75 73 71 67 64 61 60 61 59 55
98 99 100 98 92 85 85 88 89 88 90 95 94 90 89 89 88 88 87 82 82 87 89 88 87 85 82 80 79 81 83 82 82 86 86 82 80 83 85 85 86 88 88 85 81 78 74 65 52 35 20 12 10 9 8 9 10 12 16 21 24 25 23 20 21 23 23 22 22 29 40 49 55 61 70 77 80 78 74 70 66 62 60 61 64 63 59
99 100 98 94 92 91 90 92 94 94 93 92 91 91 90 88 88 91 90 86 86 88 87 84 83 82 79 77 78 80 83 85 86 90 91 87 85 87 88 88 89 91 91 88 85 83 78 69 54 35 19 11 10 9 9 10 10 12 17 22 24 23 20 21 25 26 24 21 23 37 58 71 75 77 81 83 82 81 78 73 67 62 59 63 69 71 70
97 98 92 87 89 91 90 87 87 88 88 90 94 97 98 95 93 93 90 85 82 81 81 79 76 74 74 75 75 79 84 87 89 91 92 91 90 89 89 89 90 92 93 91 87 84 77 67 54 36 18 11 11 10 10 11 11 13 16 18 20 20 21 24 27 26 24 20 21 41 66 78 80 82 84 82 80 80 77 73 69 65 66 69 74 77 79
91 89 82 79 83 86 86 87 88 89 90 94 96 96 95 94 92 89 85 82 79 76 77 78 77 77 78 78 76 79 85 88 89 90 92 92 91 89 88 90 92 94 95 93 86 78 69 60 51 35 18 12 11 11 11 11 11 13 15 16 19 20 21 25 26 23 19 16 19 42 68 79 80 82 81 77 73 73 74 76 76 75 75 77 81 84 85
94 91 82 80 84 86 86 89 90 91 92 93 92 90 88 87 87 85 84 86 86 82 78 78 80 81 83 86 87 85 85 87 90 91 91 89 87 87 89 93 95 96 97 94 82 68 56 51 45 31 17 12 12 11 11 12 12 13 15 17 19 20 21 25 22 16 12 13 23 48 71 80 80 80 79 76 72 70 71 76 83 86 86 88 92 94 88
98 95 84 79 82 82 83 85 86 86 86 86 86 86 85 83 83 83 85 89 91 86 79 76 77 78 81 91 96 89 83 87 93 92 86 83 84 89 94 96 96 95 96 91 75 57 46 42 37 26 16 13 13 12 11 12 13 14 16 18 19 19 21 21 15 10 8 13 32 60 78 80 77 77 80 83 82 79 77 78 84 92 97 98 99 97 87
97 89 79 78 80 77 75 80 84 85 86 86 85 85 83 81 81 84 87 91 91 86 78 75 78 78 77 87 98 94 86 87 91 85 79 79 86 93 96 95 93 94 94 83 63 46 39 36 29 21 15 14 14 12 12 13 14 15 17 19 18 18 19 16 9 6 6 16 44 74 81 72 66 69 77 85 89 92 93 90 90 96 99 100 100 97 89
91 81 80 86 89 82 77 81 86 87 88 88 86 83 80 78 79 82 85 85 83 80 77 79 85 87 81 82 92 96 93 91 88 79 76 82 91 95 94 93 93 94 84 65 47 37 34 30 23 17 15 15 14 13 12 13 15 16 17 18 18 17 16 10 6 5 7 19 48 67 62 48 44 51 65 79 88 95 100 99 97 97 96 97 100 100 97
89 87 90 96 97 90 82 82 83 82 81 82 80 78 76 74 74 76 79 78 76 75 78 83 89 92 89 85 89 95 98 96 86 76 78 88 94 95 94 94 94 85 65 46 36 31 29 26 20 16 15 15 14 13 12 13 15 16 17 18 17 15 11 6 5 6 6 13 27 33 26 20 20 28 43 60 73 87 98 101 100 98 96 96 99 99 99
94 93 93 94 92 86 79 77 76 75 75 76 76 75 73 72 72 74 75 75 75 76 81 88 93 94 92 90 90 95 101 96 82 75 83 92 95 96 97 94 84 67 51 42 36 29 24 22 18 15 15 16 16 14 12 13 15 16 17 17 16 11 7 5 5 7 6 7 9 9 8 7 7 10 20 32 44 60 81 95 101 100 98 98 101 100 99
94 89 87 86 82 77 74 73 72 72 75 80 81 79 76 76 78 80 79 79 80 82 86 93 97 95 93 91 92 97 101 93 79 76 86 93 96 97 96 85 68 55 50 48 40 30 23 19 17 15 16 17 16 14 13 13 15 15 16 17 14 8 5 5 6 6 7 7 6 5 5 5 4 5 7 12 17 26 43 67 89 101 101 98 97 100 101
87 82 84 84 78 75 75 75 74 75 79 86 88 84 82 85 87 88 87 86 88 90 91 92 95 96 95 94 95 99 100 91 81 82 88 92 96 96 86 71 58 54 54 52 46 36 26 19 16 16 17 17 17 15 14 13 14 15 16 16 12 6 4 6 7 7 7 7 6 6 5 5 5 5 4 5 7 9 12 25 50 77 94 99 97 97 99
80 81 88 86 77 74 78 82 82 80 80 86 89 87 90 94 94 93 93 93 95 97 97 97 97 97 95 95 98 101 97 88 85 86 87 87 90 88 75 61 56 56 56 53 50 44 34 23 17 16 18 18 17 16 15 14 13 14 16 15 10 5 5 6 6 7 7 7 7 6 6 5 5 5 5 4 5 6 5 6 14 32 55 76 89 96 98
81 87 93 88 80 79 84 87 87 84 82 86 90 92 96 99 96 93 94 97 98 99 99 99 100 98 94 94 98 98 91 85 84 82 80 82 85 81 70 61 58 58 56 52 50 48 43 34 24 18 18 19 18 16 15 14 13 13 15 14 9 5 5 6 6 6 7 7 7 7 7 6 5 5 5 5 4 4 5 5 5 6 14 29 51 74 87
87 92 93 90 90 93 94 91 90 89 88 90 94 97 99 97 90 86 89 95 98 100 99 99 100 98 93 93 96 93 86 83 83 80 80 85 86 80 72 66 63 62 58 51 46 46 47 43 35 26 20 18 18 17 16 15 13 13 14 13 8 5 5 6 6 6 6 7 7 7 7 7 6 5 5 5 5 5 4 4 5 5 4 5 13 32 52
85 89 89 89 94 97 95 91 89 90 92 93 94 95 96 93 85 81 86 93 96 97 98 99 100 98 93 91 94 91 84 85 88 86 87 92 94 89 81 74 70 68 63 53 44 41 41 43 42 36 27 20 18 18 18 15 13 13 13 12 8 5 5 6 5 6 6 6 7 8 8 7 7 6 6 5 5 5 5 5 4 4 5 5 4 7 18
81 84 87 90 92 91 88 87 88 91 94 95 94 92 92 91 89 89 93 96 95 93 94 97 100 99 94 92 94 91 87 90 93 90 89 95 99 97 93 85 78 73 67 56 46 40 38 38 40 41 36 27 20 19 19 17 13 12 13 12 7 4 5 6 5 5 6 6 6 7 8 8 7 7 6 6 6 5 5 5 5 4 4 5 5 4 4
88 87 87 89 89 85 84 86 89 91 94 96 95 93 93 94 95 97 98 98 96 94 96 98 100 100 97 95 94 90 87 89 92 90 90 96 100 100 98 92 83 76 69 59 48 41 38 37 38 41 40 34 25 20 19 18 14 12 12 11 7 4 5 5 5 5 6 6 7 7 7 8 8 8 7 6 6 6 5 5 5 5 5 4 5 5 5
92 89 85 84 84 81 82 87 91 93 94 95 94 93 92 93 96 99 100 99 99 99 100 99 99 100 100 98 95 88 83 85 89 89 87 90 96 100 100 93 83 75 68 59 49 41 38 38 39 40 41 39 32 23 20 18 15 12 11 10 7 5 4 5 5 5 6 6 7 7 7 8 8 8 8 8 7 7 7 6 6 5 5 6 5 5 5
91 88 83 82 83 80 79 83 89 92 94 94 92 90 89 91 94 96 98 99 99 100 99 98 98 100 100 100 98 92 83 81 85 85 80 79 88 97 98 90 81 74 67 58 50 43 39 38 40 41 41 41 37 28 22 20 16 12 11 11 8 5 4 5 4 5 5 6 6 6 7 8 8 8 8 8 8 8 7 7 7 7 6 6 7 7 6
92 88 84 84 85 82 80 82 87 91 94 94 90 86 87 90 92 92 93 94 96 98 99 99 99 100 99 100 100 96 86 80 82 83 80 82 91 99 98 90 82 75 68 58 49 44 41 39 41 41 41 42 40 32 24 21 18 12 10 10 8 5 4 4 4 4 5 5 6 6 6 7 8 8 8 8 8 9 9 8 8 8 8 8 7 7 8
89 85 83 84 85 83 81 82 86 92 99 99 91 83 83 87 89 87 87 88 90 93 96 97 97 98 100 100 100 98 91 85 83 82 83 88 94 97 97 95 88 78 68 58 52 48 44 40 40 42 42 42 41 35 27 23 19 14 10 9 7 5 4 4 4 4 5 4 5 5 6 6 6 7 7 8 8 8 8 9 9 9 8 9 9 8 8
84 82 81 81 80 79 79 81 86 94 100 100 91 82 79 82 83 82 81 83 83 85 87 87 87 90 93 95 98 99 96 91 88 86 89 93 94 91 91 95 92 82 70 60 55 51 45 40 40 43 43 42 42 38 30 25 21 15 11 9 7 5 4 4 4 4 4 4 5 4 5 5 5 5 6 6 6 7 7 7 8 9 9 9 9 9 9
82 81 80 77 74 72 74 78 86 95 100 98 91 83 78 79 82 81 79 80 82 82 82 82 82 83 84 87 92 97 98 97 95 94 95 99 97 90 89 95 96 86 73 61 54 50 45 41 41 43 44 44 43 39 31 26 23 17 11 9 7 6 4 4 4 4 3 4 4 4 4 4 4 4 5 5 4 5 5 5 6 7 8 8 9 9 9
84 82 80 77 70 65 65 68 78 90 98 99 97 90 82 80 83 84 82 81 81 82 80 79 80 82 83 85 88 90 91 94 96 94 94 99 99 93 91 97 98 88 73 61 54 50 46 42 41 43 45 45 44 39 32 26 23 20 14 9 7 6 5 4 4 4 4 3 4 3 3 4 3 3 3 4 4 4 4 4 4 5 5 6 7 8 8
84 81 80 76 69 62 58 58 66 80 93 99 99 97 92 88 89 91 89 84 82 82 80 78 77 78 80 83 85 83 83 87 89 86 87 94 98 97 97 100 97 85 71 61 56 54 49 43 41 44 46 46 44 39 33 27 24 22 18 11 7 6 5 4 4 4 4 4 4 3 3 3 3 3 3 3 3 3 3 3 3 4 4 4 5 5 6
79 77 77 75 67 58 53 52 56 67 79 87 91 94 95 95 94 93 90 84 81 79 76 73 72 74 76 78 80 81 81 84 85 85 86 90 94 98 100 99 93 82 70 63 61 59 53 46 42 43 46 46 44 40 34 29 26 24 21 14 9 6 5 5 4 4 4 4 3 3 3 3 3 3 3 3 2 3 3 3 3 3 3 3 4 4 4
71 73 73 71 66 59 53 51 51 55 61 67 73 76 78 78 78 78 77 77 77 77 73 67 63 65 71 75 77 77 78 78 79 83 87 91 95 97 97 93 88 81 73 67 65 64 58 50 44 43 44 45 44 39 34 29 27 25 23 18 12 7 5 5 4 4 4 4 4 3 3 3 3 3 3 3 3 3 3 3 3 3 3 3 3 3 4
72 73 72 71 70 65 57 51 49 50 52 55 59 59 59 58 58 59 59 62 65 70 72 66 56 51 56 65 72 75 75 73 73 78 84 89 93 96 94 89 84 80 74 71 70 69 64 55 47 43 43 44 44 39 34 29 26 25 25 22 16 10 6 5 5 4 4 4 4 4 3 3 3 3 3 3 3 3 3 3 3 3 3 3 3 4 4
80 79 76 74 74 71 63 53 47 46 48 49 50 50 49 47 45 44 44 44 47 51 56 55 47 40 39 46 56 65 70 69 69 72 76 80 84 92 96 94 86 80 78 76 75 73 70 64 55 46 42 42 42 40 35 30 28 26 26 24 21 15 9 5 4 5 4 4 4 4 4 3 4 3 3 3 3 3 3 4 3 3 4 4 4 4 4
87 85 82 81 82 80 72 59 48 44 45 46 45 45 43 41 38 35 32 29 29 30 30 30 29 27 25 26 33 43 53 60 64 67 70 72 77 87 97 98 91 84 81 80 78 77 77 72 63 51 44 41 41 40 37 33 30 29 28 27 25 21 14 8 5 4 5 4 4 4 4 4 4 4 3 4 4 3 4 4 4 4 4 5 5 5 5
93 90 86 85 84 79 69 58 49 46 46 45 43 41 39 38 34 30 25 21 20 20 20 18 17 16 16 17 18 22 31 42 54 63 69 71 74 81 90 94 91 83 78 77 78 80 81 78 70 59 50 44 41 40 38 35 33 32 31 31 29 26 21 14 8 5 4 5 5 5 5 5 5 4 4 4 4 4 4 4 4 4 5 5 6 6 6
95 93 88 85 83 77 67 59 55 52 50 47 44 41 40 39 36 30 26 24 23 23 24 24 22 20 19 18 17 17 21 28 42 58 71 75 75 78 85 92 92 86 80 77 78 79 80 80 77 68 58 50 45 42 39 38 36 34 33 33 32 30 26 21 15 9 6 5 5 5 5 5 5 5 5 5 5 5 5 5 5 5 5 6 6 7 7
97 93 89 87 85 80 72 64 60 59 58 55 51 47 46 46 43 37 34 34 33 32 33 34 34 32 30 28 26 25 25 26 35 52 70 79 81 81 86 93 95 91 83 77 75 76 78 80 80 74 66 58 51 47 43 41 39 37 36 35 33 32 30 28 23 17 11 7 5 6 6 6 6 6 6 6 6 6 6 6 6 6 6 7 7 8 8
96 91 88 88 89 85 75 66 61 61 62 61 59 55 52 50 47 44 44 45 45 44 44 44 42 41 40 40 39 39 37 35 37 48 63 74 80 83 86 92 95 94 87 80 78 79 82 83 82 79 75 68 60 52 47 45 43 40 38 37 35 34 32 31 29 25 19 13 9 7 6 6 7 7 7 7 7 7 7 7 7 7 8 8 9 9 10
92 88 87 89 90 87 78 68 62 61 61 62 64 62 58 55 54 54 54 55 57 58 58 55 52 50 50 51 52 52 51 49 47 50 55 64 73 81 85 88 90 91 90 88 86 85 86 86 84 82 82 78 70 60 52 48 46 44 42 40 38 37 35 34 33 32 28 24 20 17 14 12 11 10 9 9 8 8 8 8 9 9 10 9 10 10 11
88 85 86 88 89 89 83 75 69 66 65 66 68 68 66 65 67 67 65 64 67 73 74 69 62 59 59 60 61 62 62 61 60 60 61 64 71 80 86 88 90 92 95 96 95 93 92 92 89 87 87 85 79 69 60 54 51 48 45 43 41 40 38 37 37 36 34 32 30 29 27 25 23 20 17 15 13 12 11 10 10 10 11 11 11 12 12
83 82 84 85 86 85 80 74 70 69 69 70 74 77 78 77 77 77 76 76 78 83 85 79 68 62 61 64 66 66 65 65 65 66 66 68 72 76 79 80 82 87 93 98 99 98 97 95 92 90 90 90 86 78 69 63 58 54 50 47 45 43 41 40 40 39 38 37 36 36 35 34 32 29 26 23 20 17 15 13 12 11 12 12 13 13 13
Wind_Speed
17 18 18 17 15 16 18 19 20 19 18 18 20 21 22 21 18 21 24 22 22 24 21 19 19 17 16 17 17 18 18 18 18 18 20 21 22 25 27 27 26 24 23 24 27 29 30 31 32 32 34 37 38 38 37 36 33 30 32 35 36 34 32 30 28 27 27 28 28 29 31 31 31 30 29 27 28 29 29 29 29 28 28 32 35 38 40
16 17 19 18 18 18 21 23 23 21 21 21 22 23 23 24 25 26 26 24 25 24 20 18 17 15 15 16 16 17 18 19 19 20 21 21 22 23 23 22 21 21 23 26 28 29 30 31 32 33 36 38 39 38 37 35 31 30 32 35 35 33 31 30 29 28 27 28 29 30 31 31 31 31 29 29 28 27 28 29 28 27 26 29 32 35 37
15 15 16 17 18 19 22 24 24 23 23 23 24 25 24 26 28 27 25 25 26 22 17 15 14 14 15 16 17 18 18 17 17 19 20 20 20 19 19 18 19 22 24 27 28 29 30 31 32 35 37 38 38 37 35 32 30 30 33 34 33 31 30 30 29 29 28 29 30 31 31 31 32 31 30 30 29 28 28 28 28 27 25 26 29 33 35
17 17 15 15 16 18 23 27 25 23 24 24 24 24 24 24 25 24 23 24 23 18 14 15 15 15 16 17 18 18 16 14 14 16 16 16 16 16 17 18 21 23 25 27 28 29 30 31 33 36 37 37 37 35 33 31 30 31 32 33 32 31 29 29 30 30 30 30 31 31 32 31 32 32 32 31 30 29 28 28 28 27 25 24 27 31 34
15 16 15 14 12 12 17 21 18 15 15 16 17 17 16 15 15 17 19 20 18 16 16 17 16 16 17 18 18 16 13 10 10 11 11 12 14 15 17 20 22 24 26 27 28 29 30 32 34 36 36 36 34 33 32 30 30 31 32 32 31 30 29 29 30 30 31 31 32 32 32 32 32 32 33 33 32 30 29 28 28 28 26 24 24 28 33
12 13 13 12 9 9 13 15 13 11 10 10 11 11 10 10 11 14 17 18 17 17 17 17 17 17 19 18 16 13 10 8 8 9 11 12 15 17 19 21 23 25 26 27 28 29 30 32 33 34 34 34 33 32 31 30 30 31 32 32 31 30 30 30 30 31 32 33 33 33 33 33 32 32 33 33 32 31 29 28 28 28 27 26 24 26 31
16 17 15 9 6 10 14 12 9 10 11 11 12 12 12 14 16 17 19 19 18 17 17 17 18 19 19 16 12 10 9 9 9 11 12 14 16 18 20 22 24 25 25 26 27 28 30 31 32 32 32 32 32 30 29 28 29 31 31 31 30 30 30 30 31 32 33 34 34 35 35 34 32 32 32 31 32 31 30 28 28 28 28 27 26 25 28
16 13 11 8 7 12 14 10 8 11 12 13 15 15 13 13 14 16 17 17 16 17 18 19 18 17 14 11 9 8 8 10 11 12 13 15 17 19 21 23 24 24 24 25 27 28 29 30 30 31 31 30 30 28 27 27 29 30 31 31 30 31 31 31 32 33 34 35 35 36 35 34 32 31 31 30 30 30 29 28 28 28 28 28 28 27 28
16 12 13 14 16 17 16 13 11 13 14 12 12 13 13 12 13 15 16 15 16 17 16 15 13 11 11 10 9 8 9 11 13 14 15 16 18 20 21 22 22 22 22 24 26 27 28 29 29 29 29 28 27 26 26 27 29 29 30 30 30 31 31 32 33 34 35 35 35 35 34 33 32 30 30 30 30 29 28 28 28 28 28 28 28 29 29
15 15 12 9 8 9 11 11 9 11 11 8 8 12 15 15 14 14 13 12 13 12 12 11 10 9 11 11 9 9 11 13 14 15 15 16 17 18 18 19 19 20 21 23 25 27 28 28 28 28 27 26 26 25 26 27 28 29 29 29 29 30 31 32 33 33 33 33 33 33 33 32 32 31 31 30 30 29 27 26 27 27 28 28 29 30 31
14 14 10 5 6 9 9 7 6 6 6 7 10 13 15 13 10 8 8 9 10 11 11 11 10 11 13 13 11 11 14 16 15 15 15 15 15 15 15 17 18 19 21 23 25 26 26 27 28 27 26 25 25 25 25 27 28 28 28 28 28 29 30 31 32 32 32 31 31 31 31 32 32 32 32 31 30 28 27 25 25 26 27 27 27 30 32
15 15 13 10 13 15 11 8 9 10 12 12 10 7 7 8 6 7 9 12 14 15 13 12 12 13 14 14 14 14 16 16 15 14 15 14 14 15 16 17 18 20 22 23 24 25 26 27 28 27 27 26 25 25 25 26 27 27 27 27 27 27 28 29 30 31 31 31 31 30 30 31 31 32 31 30 29 28 27 26 26 26 27 28 28 30 32
15 17 16 14 17 19 16 13 12 12 12 11 9 7 6 7 7 11 14 16 18 20 18 16 16 16 16 18 20 20 18 15 14 14 15 15 15 15 16 17 18 20 21 22 23 25 26 28 28 28 27 26 24 24 24 26 26 26 25 25 25 25 26 28 29 30 31 31 30 30 30 30 30 31 31 30 29 29 28 28 28 27 27 27 29 31 32
12 14 15 14 14 15 13 10 9 9 9 9 9 8 9 11 14 17 18 18 19 20 21 20 20 20 19 21 22 21 18 15 14 15 15 15 15 16 16 17 18 19 21 22 23 25 26 28 28 28 27 25 23 23 24 25 25 24 24 24 23 24 26 27 28 29 29 30 30 31 31 31 31 31 30 29 29 29 29 29 29 29 27 26 26 29 31
10 11 11 9 8 7 6 7 8 8 8 9 11 15 18 20 21 20 19 19 19 19 20 21 21 21 21 21 22 22 20 18 16 15 15 15 15 15 16 18 19 20 22 22 23 24 26 27 28 28 26 23 22 23 24 25 24 23 22 22 22 24 26 26 27 27 28 28 30 31 32 32 32 32 30 29 29 30 31 31 32 32 31 27 25 26 27
8 8 7 6 6 8 10 13 14 14 15 19 23 25 25 23 22 21 21 20 19 21 23 24 25 25 24 23 23 24 26 24 20 17 16 15 14 15 17 18 20 21 22 22 22 23 25 27 27 27 24 22 21 22 23 24 23 22 21 21 22 23 24 25 26 26 26 28 29 29 29 30 30 29 29 28 29 29 30 32 33 35 33 28 25 24 22
15 15 16 15 16 18 20 22 23 24 25 24 24 24 24 23 22 23 25 25 25 26 28 28 29 29 26 24 23 25 29 29 23 18 16 15 14 15 16 18 19 20 21 21 22 24 25 26 26 25 23 21 21 22 23 23 22 21 20 20 22 22 23 24 24 25 26 28 28 26 26 26 26 26 25 25 25 26 28 29 31 32 30 28 25 20 15
23 23 23 21 21 21 20 20 20 21 22 22 22 25 27 26 26 27 29 29 30 30 30 30 30 28 25 24 23 24 26 23 18 16 15 14 13 14 15 17 18 19 20 22 23 25 25 25 24 23 22 21 20 21 22 22 21 20 20 20 21 22 23 23 23 24 26 27 26 24 23 24 24 24 24 24 24 26 29 28 27 27 27 27 23 15 9
23 24 23 21 20 21 20 20 21 21 23 24 26 28 28 28 28 29 29 28 29 28 28 29 29 27 24 23 23 24 23 18 15 15 13 11 11 13 14 16 18 19 21 23 25 25 25 23 22 21 21 20 19 20 21 21 20 20 20 20 21 21 22 23 23 24 26 26 25 23 23 24 25 25 25 25 25 26 29 29 26 24 25 24 19 11 5
25 26 24 21 21 22 22 22 23 23 24 25 26 26 27 28 29 29 28 27 27 27 27 28 28 27 25 23 24 25 24 19 15 12 10 9 10 12 14 16 18 20 22 25 26 25 24 21 20 19 19 19 19 20 20 20 19 19 19 20 20 20 21 22 23 24 25 24 23 22 23 24 25 26 27 27 27 28 31 32 29 24 21 19 15 9 4
27 26 22 19 20 22 20 19 20 21 22 24 25 24 25 26 27 28 28 27 27 28 29 28 27 26 25 24 24 26 26 21 15 11 9 8 10 12 14 17 19 20 23 25 25 24 22 19 18 17 18 18 18 19 19 18 18 18 19 20 20 20 20 21 22 23 23 22 21 21 23 24 25 26 28 29 30 31 33 35 32 25 19 16 13 10 8
25 21 15 14 18 21 18 16 16 17 19 21 22 22 23 23 24 26 28 28 29 29 28 26 25 25 24 24 25 27 27 22 16 12 9 8 9 12 14 17 19 21 23 24 23 22 20 18 17 16 16 17 18 18 18 17 17 17 18 19 19 19 19 20 20 21 21 20 20 20 21 23 24 26 28 30 32 33 33 34 33 27 21 16 15 15 12
20 18 16 16 20 23 21 20 20 20 21 23 24 24 24 23 23 24 26 27 27 26 24 23 24 24 24 23 24 26 24 20 16 12 8 7 10 12 14 17 19 21 21 22 21 20 19 17 16 16 15 16 17 18 17 16 16 16 17 17 17 17 17 18 18 18 19 19 19 19 20 21 23 25 26 29 31 32 33 33 31 28 23 18 16 15 12
22 20 19 19 22 25 25 25 25 26 25 26 27 26 24 23 22 23 24 24 24 23 22 21 22 23 22 21 22 23 23 20 16 10 7 7 10 12 15 17 19 19 20 20 20 19 18 16 15 15 14 15 17 17 17 16 15 15 16 16 16 15 15 15 16 17 18 19 19 19 20 21 23 25 26 27 29 30 31 31 31 29 26 21 17 16 13
24 22 20 21 24 27 28 28 29 29 28 27 27 26 25 23 23 22 22 23 23 23 23 22 22 22 21 20 20 22 23 20 14 8 6 8 10 12 15 17 18 18 19 19 19 18 17 15 14 13 13 14 16 16 16 15 14 14 15 15 14 13 13 13 14 16 17 18 19 19 20 21 22 24 25 26 28 29 30 31 31 29 27 24 23 22 20
23 23 23 25 27 27 28 29 29 28 26 26 25 24 23 23 23 24 24 24 23 23 24 24 23 22 21 20 21 24 23 18 12 8 6 7 9 12 15 17 17 18 19 19 18 17 16 14 13 13 13 13 14 15 15 14 14 13 13 13 12 11 11 12 13 15 16 18 18 19 20 21 22 23 24 25 27 27 28 29 29 28 26 25 25 27 28
22 22 22 26 27 25 24 25 26 24 21 20 19 19 19 21 23 24 24 25 25 25 25 24 22 22 22 22 23 24 21 16 12 9 7 6 8 12 15 16 17 17 18 18 17 16 15 14 13 12 12 13 13 14 14 14 13 13 13 12 11 9 9 10 12 13 15 16 18 19 20 21 22 23 24 25 26 26 26 27 27 27 27 26 25 26 28
19 18 19 23 25 23 21 21 22 19 16 15 15 17 19 21 21 21 20 20 22 23 24 24 23 22 22 21 20 19 17 15 12 9 6 4 7 11 15 17 17 17 17 17 17 16 15 13 12 11 11 12 13 12 13 13 12 12 12 11 10 8 8 9 11 12 13 15 16 18 19 20 21 22 23 24 24 25 25 26 27 27 28 28 27 26 26
16 16 17 19 21 21 19 20 19 18 16 15 15 17 20 21 22 21 18 17 18 19 20 21 22 22 21 18 17 17 16 14 11 7 5 4 7 11 14 16 17 18 17 17 17 17 15 13 12 12 11 12 12 12 12 12 12 11 11 11 9 7 7 9 10 10 12 13 15 16 18 19 20 21 21 22 22 23 23 24 25 26 26 27 27 26 26
15 15 16 17 17 18 18 19 19 18 16 15 15 15 17 20 21 20 18 17 17 18 19 19 20 21 19 17 17 17 16 14 10 7 6 6 8 11 14 17 18 18 18 17 17 17 16 14 13 12 12 13 12 11 11 12 11 11 11 10 9 7 7 8 9 10 10 12 13 14 16 17 18 19 19 20 20 20 21 22 22 23 23 24 24 25 26
17 16 16 16 16 17 18 19 19 17 15 15 15 15 15 16 17 18 17 17 17 17 18 19 18 18 18 19 19 18 17 16 13 10 9 9 10 13 15 16 17 17 18 18 18 18 17 15 14 14 13 13 12 11 11 11 11 11 10 10 9 7 7 7 8 8 9 10 11 12 13 15 16 17 17 18 18 18 19 20 20 20 21 21 22 23 24
19 17 15 15 17 18 18 18 18 15 13 13 14 15 14 15 16 16 17 17 17 17 18 20 18 16 18 20 20 20 20 19 17 16 14 13 14 15 16 16 16 17 18 18 18 18 17 16 15 15 14 13 12 11 11 11 11 11 10 10 9 7 7 7 7 7 8 9 9 10 11 12 14 15 16 16 16 16 17 17 18 18 19 19 20 21 22
19 18 18 18 19 19 18 17 16 15 13 12 14 15 15 14 13 14 15 17 18 18 18 18 17 15 16 20 20 19 21 22 21 20 20 19 17 15 15 15 16 18 19 18 18 18 18 17 17 16 15 14 13 12 11 11 11 12 11 10 9 8 7 7 7 6 6 7 8 8 9 11 12 13 13 14 14 14 15 15 15 15 16 17 17 18 19
19 21 21 21 21 22 21 19 16 14 13 13 14 14 14 13 12 12 14 16 16 15 15 15 16 14 13 18 22 22 22 24 25 25 24 23 21 18 15 15 17 19 19 18 18 18 18 18 18 18 17 15 13 12 11 11 12 12 12 11 10 9 8 7 7 7 6 6 7 7 8 9 10 11 12 12 13 13 14 14 14 14 14 15 15 16 17
18 19 20 21 21 23 24 23 20 17 16 16 15 13 12 12 12 12 14 14 14 14 14 15 15 15 13 13 19 23 25 25 26 27 26 24 22 21 20 19 19 19 18 17 17 18 18 19 19 19 17 16 14 12 12 12 12 13 13 12 11 10 9 7 7 7 6 6 6 6 7 8 8 10 10 11 12 12 13 13 14 14 14 14 15 15 16
16 16 17 19 20 22 24 25 23 20 19 18 17 15 12 11 12 13 14 14 14 14 15 16 16 15 14 13 14 18 25 29 29 28 26 23 21 21 22 21 20 19 18 17 17 18 19 19 19 19 18 16 14 12 12 12 13 13 13 12 12 11 10 9 7 7 7 6 6 6 6 6 7 8 9 10 11 11 12 13 14 14 14 15 15 15 15
15 15 16 18 19 20 21 23 22 19 17 17 18 18 15 12 12 14 14 15 15 15 16 16 16 16 15 15 14 13 17 25 31 32 29 26 24 25 24 23 22 20 19 17 17 18 19 19 20 19 18 16 14 13 12 13 14 14 14 13 13 13 12 10 8 8 7 7 6 6 6 5 5 6 7 8 9 10 11 12 13 14 14 15 15 15 15
15 14 15 18 20 20 20 21 20 17 17 18 19 19 17 14 13 14 14 14 15 16 17 17 18 18 17 17 16 16 15 16 22 31 34 32 29 27 26 24 22 20 19 18 17 17 18 19 20 19 17 15 14 13 13 13 14 14 14 14 14 14 14 12 10 8 8 7 7 7 6 6 6 6 6 7 8 9 10 11 12 12 13 14 14 15 15
16 16 16 18 19 20 20 21 20 19 18 20 21 21 19 16 15 15 15 15 15 17 17 18 19 19 18 18 18 17 17 17 19 22 27 29 29 26 24 23 22 21 20 19 17 16 17 19 19 19 17 15 14 13 13 14 14 14 14 14 15 15 15 14 12 10 9 8 8 7 7 6 6 6 6 7 8 9 9 10 11 11 12 12 13 13 14
19 19 20 20 21 21 21 21 20 19 18 19 21 21 20 18 17 18 18 17 17 18 18 18 19 19 19 19 19 18 18 19 20 20 19 21 23 23 23 22 21 20 20 19 17 15 17 18 19 18 16 15 13 13 14 15 15 14 14 15 15 16 17 16 14 13 11 9 8 8 7 7 7 6 6 7 8 9 10 10 10 11 11 12 12 12 13
21 21 22 24 24 23 21 19 18 17 17 18 18 17 17 17 18 20 21 21 20 19 19 19 20 20 20 20 19 19 19 20 19 17 15 16 19 21 23 22 19 19 20 19 16 15 16 17 18 17 16 15 13 13 14 15 15 15 14 15 15 17 18 18 17 15 13 12 11 9 8 8 7 7 7 7 8 9 10 10 11 11 11 11 12 12 12
23 23 24 25 26 26 23 20 18 17 16 17 18 17 17 18 20 21 22 22 22 22 21 21 21 21 21 21 21 20 20 20 19 17 15 15 18 22 23 20 19 20 21 19 16 15 16 16 17 17 16 15 14 14 14 15 15 15 15 15 15 16 18 19 19 18 16 15 13 12 11 10 9 9 9 9 9 10 10 11 11 12 12 12 12 12 12
25 25 25 25 27 28 27 24 21 19 18 18 19 20 20 21 22 23 23 24 24 24 24 23 23 22 22 23 23 22 22 21 20 19 17 16 19 24 24 22 21 21 21 18 16 15 16 16 17 17 16 15 14 14 14 15 15 15 16 15 15 16 17 19 20 20 19 18 16 15 14 13 12 11 11 11 11 11 11 12 12 12 12 12 12 12 12
24 25 26 27 28 30 31 29 26 23 21 20 20 21 22 23 23 24 25 25 25 26 26 26 25 25 24 24 24 24 24 23 22 21 19 18 18 22 26 26 23 21 20 18 17 16 16 16 17 17 16 15 15 14 15 15 15 16 16 16 16 16 17 18 20 21 21 21 19 18 16 16 15 14 13 13 13 13 13 13 13 13 13 13 13 12 12
24 25 26 26 27 30 33 33 30 27 25 23 22 22 23 23 24 24 24 24 25 26 26 26 26 26 26 26 26 25 24 23 22 22 21 20 19 19 23 25 24 22 22 20 18 17 17 17 17 16 16 16 15 14 15 16 16 16 17 17 17 16 16 17 19 20 22 22 21 20 19 18 17 16 15 15 15 15 15 14 14 14 14 14 13 13 13
23 25 26 26 27 30 33 33 31 28 26 25 24 23 23 23 23 23 22 22 22 23 24 24 23 23 23 24 25 25 25 23 22 21 20 20 20 19 20 23 24 24 23 21 19 18 18 18 17 16 16 16 15 15 15 16 17 17 17 17 17 17 17 16 17 19 20 21 22 22 21 20 19 18 17 16 16 16 16 15 15 14 14 14 14 14 13
23 25 26 27 28 30 31 29 27 25 24 24 24 23 23 23 23 22 21 21 21 21 21 22 22 21 21 21 22 23 24 23 22 20 19 19 19 19 20 24 25 23 22 21 21 20 19 18 17 17 17 17 16 15 15 16 16 17 17 17 18 18 17 17 17 17 18 19 20 21 21 21 20 19 18 18 17 17 16 16 15 15 15 14 14 14 13
22 23 26 27 27 28 27 25 24 23 23 24 24 24 23 22 22 21 21 21 21 21 21 21 21 20 19 19 20 21 22 22 21 20 20 19 18 17 19 23 25 24 23 23 23 22 21 19 19 19 19 18 17 16 16 16 17 17 17 18 18 18 18 17 17 16 16 17 18 19 20 20 20 19 18 18 18 17 16 16 15 15 14 14 14 14 14
21 23 25 25 26 26 26 24 23 23 24 25 25 24 23 22 22 22 21 21 22 22 22 21 20 19 19 18 18 19 20 20 20 20 21 21 19 17 17 20 24 26 25 25 25 24 23 22 22 21 21 20 19 18 17 17 17 17 18 18 19 19 19 18 17 16 15 15 16 17 18 19 18 18 18 18 17 17 17 16 15 15 14 14 14 14 14
22 23 24 24 25 26 26 26 25 26 26 25 24 23 22 22 22 22 21 22 22 23 23 22 21 20 19 18 18 17 18 19 19 19 20 21 20 19 18 19 21 24 25 26 27 27 27 26 24 23 22 21 20 19 18 18 18 18 19 19 20 20 20 19 18 17 16 15 15 16 17 17 17 17 17 17 17 17 16 16 15 15 15 14 14 14 14
21 23 24 24 24 25 26 28 29 29 28 26 24 23 22 21 21 22 23 23 22 22 23 24 23 21 20 19 17 16 17 17 17 17 18 19 20 20 20 19 20 22 24 25 25 27 28 28 26 25 24 23 22 20 19 19 19 19 20 20 21 21 21 20 19 18 18 17 16 16 16 16 16 16 16 16 16 16 16 16 16 15 15 15 14 14 14
23 24 23 24 24 26 28 30 30 28 26 24 23 23 22 22 22 22 23 22 21 21 22 23 24 22 21 20 18 17 16 16 16 16 17 18 19 21 21 21 21 22 23 23 23 22 23 24 25 25 25 24 22 21 20 20 19 20 21 21 22 22 21 21 20 19 19 19 18 17 16 16 16 15 16 16 16 16 16 16 16 16 16 15 15 14 14
Wind_Direction
265 266 265 259 252 254 258 259 261 263 266 268 265 261 261 264 261 264 273 281 283 285 289 290 290 287 279 276 276 274 273 272 270 269 270 273 274 275 277 279 281 285 291 296 299 301 302 303 303 304 306 308 309 309 309 309 309 308 312 317 319 317 313 309 306 304 302 303 304 306 307 308 310 312 313 312 311 309 308 307 302 292 277 265 258 250 244
271 265 264 260 253 253 256 259 264 268 267 267 268 266 264 266 267 271 278 283 284 287 292 292 289 283 277 278 280 279 278 276 270 265 268 275 279 279 279 281 284 289 294 297 298 299 301 303 304 306 307 307 308 308 309 308 308 309 313 317 318 316 312 309 307 305 304 304 305 307 308 308 308 310 312 312 311 309 308 307 305 298 284 270 261 253 245
280 273 272 267 256 252 255 258 261 264 267 268 269 267 265 266 268 272 276 279 283 288 290 288 287 286 285 286 287 286 283 278 272 269 272 278 279 278 278 283 288 292 294 296 298 300 302 303 305 306 305 306 308 309 309 309 308 310 314 317 317 315 312 310 309 309 308 307 307 307 308 308 308 309 310 309 309 309 308 306 305 301 289 273 263 256 248
285 282 284 280 270 263 262 261 263 266 268 270 271 271 271 269 268 271 272 273 279 285 285 284 287 289 290 292 292 289 283 276 273 270 271 274 275 277 283 287 289 291 293 296 299 301 303 304 305 305 305 307 308 309 310 310 309 312 315 316 317 316 314 313 312 311 310 308 307 307 307 307 308 309 309 308 307 306 307 306 304 302 295 280 265 256 250
284 285 287 288 289 281 268 266 273 278 273 268 268 269 270 271 269 265 264 267 276 284 284 285 288 289 292 296 296 290 283 274 271 273 277 283 287 290 293 292 290 292 295 298 300 302 304 304 304 304 306 308 309 310 310 310 310 313 316 317 318 318 317 315 313 312 310 308 307 307 307 307 307 308 308 307 306 303 303 303 302 300 297 288 274 260 252
276 282 280 280 279 270 270 277 284 283 268 255 258 260 259 266 269 266 267 274 282 287 287 288 290 292 294 296 294 290 286 285 290 297 302 303 302 300 298 295 294 295 298 300 302 303 303 303 303 305 307 308 309 309 309 310 313 315 317 319 320 320 318 316 314 312 310 309 309 309 309 308 307 307 306 306 305 303 300 299 299 299 297 292 282 268 257
268 272 270 268 254 256 273 287 279 261 251 246 256 267 267 265 268 270 274 279 284 286 287 288 291 292 291 288 285 286 292 300 305 308 308 307 305 303 301 298 297 298 300 302 302 302 302 303 305 307 308 308 308 308 309 312 315 317 319 322 322 320 318 316 315 313 312 312 312 312 311 310 308 307 306 305 305 303 300 297 296 296 295 292 285 274 263
259 258 245 236 255 274 282 285 263 251 251 255 265 276 280 273 271 273 276 279 282 282 283 286 287 285 280 276 278 288 298 305 307 307 307 306 303 301 299 298 298 300 302 302 302 303 303 305 307 308 308 307 307 308 312 315 317 319 322 323 322 320 319 317 316 314 313 314 314 313 311 311 311 309 307 306 305 303 300 297 293 292 291 289 286 279 269
246 240 235 247 268 281 285 281 263 247 247 256 268 277 284 287 284 282 282 283 281 279 282 284 280 276 273 274 284 298 303 303 303 303 303 303 301 300 298 298 299 301 302 302 304 305 305 307 309 309 308 308 308 311 315 317 319 322 324 323 322 321 320 318 317 316 315 315 315 314 313 313 314 314 312 310 308 306 302 296 292 289 287 285 283 279 273
241 241 244 256 266 275 284 281 254 228 230 250 274 281 287 291 289 283 280 280 279 279 284 285 278 274 275 279 292 300 296 294 296 296 299 304 305 302 299 299 301 302 304 305 306 306 308 310 310 309 309 310 312 315 317 318 321 324 324 323 323 323 321 319 318 317 317 318 317 317 317 317 318 319 319 317 314 312 307 299 293 289 286 284 281 278 275
243 239 238 242 243 252 266 269 247 237 258 282 287 287 289 290 287 280 275 278 280 280 283 285 283 279 277 281 290 290 285 287 289 293 303 311 311 307 304 304 305 305 307 308 308 309 310 311 311 311 312 314 315 316 318 321 324 325 324 324 325 324 322 320 319 319 320 321 322 321 320 321 322 323 324 323 320 318 314 307 298 291 286 284 283 280 277
255 250 246 252 258 262 270 282 285 291 297 294 286 283 282 278 286 299 299 300 300 293 284 274 269 271 273 276 277 276 278 282 285 296 311 313 309 309 309 308 308 308 309 311 311 310 311 312 314 315 316 315 315 317 320 325 326 325 324 326 326 325 322 320 320 323 325 326 325 325 325 326 327 328 329 328 324 320 317 312 306 298 290 284 283 282 280
265 261 258 261 270 278 288 297 298 295 291 277 252 238 248 265 294 309 307 308 308 302 293 282 275 276 275 274 275 273 272 273 283 300 311 310 306 306 309 311 314 314 314 314 312 311 312 314 316 316 316 314 315 319 324 326 327 325 325 327 327 325 322 322 324 328 330 330 329 330 332 333 333 333 333 332 329 324 320 316 312 307 300 291 285 282 280
268 263 262 268 280 288 291 296 300 299 286 255 234 250 278 294 303 305 302 302 302 300 297 293 291 289 285 284 287 284 272 267 279 295 302 305 307 307 309 313 315 316 315 314 313 312 313 315 316 315 314 313 316 322 326 327 326 325 326 327 327 325 323 325 329 333 333 333 334 336 337 338 339 339 338 335 332 329 326 322 318 315 311 304 295 287 282
274 263 261 272 285 283 282 296 303 301 287 270 274 290 297 299 301 300 296 296 295 292 292 292 292 292 290 292 297 295 283 273 274 283 292 301 305 305 307 310 312 314 315 314 313 313 314 314 314 313 312 314 319 325 327 327 325 325 326 327 325 324 325 329 334 336 336 338 340 341 341 343 344 344 342 337 333 331 329 327 326 324 322 318 310 297 285
266 250 249 256 264 270 287 300 300 296 292 291 293 294 293 295 297 294 290 289 286 285 288 289 289 290 290 292 295 294 288 280 271 272 284 295 299 301 305 308 310 312 313 313 313 313 312 311 312 312 312 315 321 327 327 325 324 325 326 326 324 325 329 333 337 339 339 342 343 344 345 346 346 345 343 337 333 333 333 331 330 329 328 327 321 306 288
271 266 264 264 269 279 290 295 291 288 288 289 292 293 292 293 293 289 286 286 284 284 285 286 287 287 288 290 291 289 286 280 269 267 281 292 296 300 305 308 310 312 313 313 313 311 310 309 310 311 313 317 323 327 325 323 324 324 324 325 327 330 333 336 339 342 343 343 344 345 347 349 347 345 344 343 342 343 343 340 335 332 330 330 327 313 287
282 280 277 277 279 284 289 291 287 285 283 284 286 286 286 287 286 284 284 285 285 286 286 285 286 286 288 289 289 288 287 280 268 268 282 291 294 300 306 309 310 311 312 312 311 310 309 310 310 311 313 318 324 325 322 321 323 324 325 327 331 335 336 338 342 345 345 344 345 348 352 354 352 348 347 347 349 353 355 350 343 337 335 335 334 323 291
288 287 287 289 289 288 287 284 279 276 275 277 278 279 279 279 279 279 280 281 282 284 286 286 286 286 286 288 289 287 283 273 266 273 283 288 293 299 305 306 306 307 309 309 309 310 311 312 312 311 313 318 322 321 319 320 323 325 327 331 335 337 338 341 345 347 346 345 347 351 357 359 357 355 353 351 351 356 1 2 358 352 348 345 342 332 304
290 289 291 292 289 285 283 280 277 274 274 274 274 274 276 277 277 277 277 278 280 283 287 289 288 286 283 281 282 283 279 269 265 273 281 287 296 300 301 301 301 303 305 306 308 312 314 314 312 311 312 316 319 318 317 320 323 327 329 332 335 339 342 344 348 350 349 348 350 356 1 0 358 360 3 3 3 5 8 11 11 9 4 359 351 341 332
296 295 297 297 290 283 279 279 280 279 277 276 275 274 275 277 278 278 277 276 279 283 287 290 290 287 282 274 270 274 277 274 269 271 280 291 297 298 297 297 298 300 302 305 310 314 315 313 311 311 312 314 315 316 316 318 323 327 329 331 336 342 345 347 350 352 353 353 356 1 2 359 358 3 8 11 14 16 16 16 16 17 18 17 14 17 25
299 305 313 312 300 291 285 283 283 279 276 278 278 279 281 282 280 278 276 275 278 281 286 291 294 292 284 272 266 270 274 271 266 269 280 293 297 297 297 296 297 299 303 308 313 315 313 311 309 308 310 311 312 312 313 317 322 325 327 331 337 343 347 349 353 357 359 1 5 6 3 0 2 8 13 16 18 20 22 21 19 18 19 26 40 47 41
304 316 321 314 304 296 291 289 287 283 281 282 283 284 286 285 281 278 276 277 279 281 284 289 294 295 288 275 270 273 272 264 259 265 281 296 298 297 297 295 296 301 306 312 313 310 308 307 306 305 307 307 308 309 310 315 322 324 326 331 338 343 347 350 357 3 6 11 14 12 9 9 11 13 17 20 21 22 24 24 24 24 21 22 39 49 35
311 311 308 302 295 290 288 289 290 290 289 289 290 291 292 291 287 282 279 280 282 283 284 285 289 294 291 280 271 270 267 260 257 261 278 295 296 295 294 293 297 303 307 310 308 305 304 303 301 302 305 304 304 306 310 315 320 322 324 329 337 342 345 350 359 8 13 17 19 17 15 18 20 20 21 24 24 25 26 26 28 31 31 31 40 49 45
309 302 298 293 287 287 289 292 294 295 297 298 297 297 300 299 296 291 286 285 285 285 285 285 286 288 289 284 274 265 260 255 252 253 269 286 291 292 290 292 297 303 305 305 304 303 304 303 299 300 302 302 302 304 308 314 318 319 322 327 334 340 344 349 359 9 15 18 19 18 18 20 22 22 25 27 27 27 28 27 27 31 35 39 45 54 60
297 295 294 289 286 289 294 296 298 301 303 302 299 300 302 301 299 296 292 289 288 286 285 284 283 282 283 280 269 257 252 249 245 246 259 275 283 285 286 290 296 300 300 302 305 305 305 304 302 300 299 298 300 304 307 312 316 316 318 323 329 336 342 347 356 6 13 16 17 18 19 20 20 21 24 28 29 29 30 30 29 29 33 38 43 49 55
287 290 290 287 289 296 298 298 303 310 312 307 301 300 299 297 297 297 292 287 284 283 283 283 281 279 278 273 261 250 245 242 238 238 246 264 274 278 283 289 294 295 297 301 304 306 307 306 302 301 299 297 299 303 306 309 313 313 315 318 323 330 337 342 351 2 10 14 16 18 20 20 19 19 23 25 27 28 31 32 32 31 32 36 40 44 48
283 282 281 284 293 304 306 305 308 314 316 312 305 301 300 300 302 304 302 296 291 286 283 281 279 276 275 268 255 243 238 235 232 230 234 254 268 275 283 288 290 291 295 300 303 304 306 306 305 305 299 295 298 302 304 307 310 310 310 312 315 321 329 335 344 358 8 11 14 17 20 20 19 20 23 23 24 25 28 29 30 30 31 33 37 40 44
278 274 276 285 298 307 309 307 308 310 308 304 301 301 302 301 300 301 303 307 308 304 296 286 278 275 271 260 243 235 232 228 223 222 225 242 261 271 278 283 285 289 295 300 301 302 303 304 306 307 300 294 297 301 300 302 306 305 303 306 306 310 320 328 338 353 4 9 12 15 17 20 20 21 22 23 23 24 26 27 28 28 29 31 35 39 43
273 276 282 289 298 304 304 303 304 306 305 301 300 303 304 301 298 297 300 307 311 313 311 300 285 275 267 251 236 233 232 225 219 220 225 237 252 262 268 273 278 286 294 299 300 301 303 304 304 304 299 296 297 298 296 298 301 299 297 297 296 298 310 321 331 347 358 5 11 13 14 18 21 22 24 25 25 25 27 28 29 29 28 29 32 37 43
281 283 283 287 294 299 299 298 299 302 306 309 312 314 313 309 307 306 309 312 312 311 314 312 297 278 261 246 234 230 227 221 218 220 224 234 247 253 258 265 272 280 288 295 299 300 303 305 304 301 298 297 297 295 293 293 294 293 291 289 286 287 299 311 324 341 353 359 7 11 13 16 20 21 23 26 27 27 29 30 30 31 31 30 31 35 41
290 289 286 289 294 296 296 298 298 299 305 313 318 320 319 318 318 318 319 320 319 316 320 323 313 285 259 243 234 229 225 223 224 226 227 234 245 252 255 258 266 274 281 288 295 298 301 305 306 301 297 296 297 294 290 288 289 287 284 281 276 276 288 303 314 332 346 352 359 6 11 16 18 19 21 24 26 28 31 31 31 32 33 33 33 35 39
297 299 300 301 299 294 295 297 295 294 302 312 316 318 319 318 321 325 328 328 324 319 321 328 327 303 265 244 235 230 227 228 230 230 229 230 237 248 255 255 257 266 275 282 289 296 301 305 306 303 297 294 294 293 287 283 283 282 278 274 269 266 277 294 305 318 336 344 350 360 9 14 15 15 17 20 22 24 28 30 31 32 33 34 34 36 38
302 304 307 310 306 301 303 306 299 293 300 308 308 312 316 316 317 323 328 331 331 326 323 330 337 326 286 253 239 233 231 234 236 236 238 242 244 245 250 253 253 259 269 278 285 294 301 304 305 303 299 293 291 291 287 280 277 276 272 267 261 258 264 281 294 306 321 334 342 353 4 10 10 9 11 13 16 19 21 24 26 28 30 32 34 35 36
304 305 308 313 312 309 313 319 312 299 296 300 301 304 311 314 314 316 320 326 331 332 328 326 332 336 320 280 253 240 237 240 242 243 249 258 257 247 245 251 257 260 266 275 284 292 299 303 305 304 300 293 288 287 285 279 273 270 267 260 253 249 253 266 282 294 306 319 331 342 355 3 6 5 4 5 9 12 14 16 18 20 23 26 29 32 34
304 311 317 320 318 315 319 322 315 299 289 291 295 296 300 306 307 306 311 318 324 325 323 319 319 325 328 318 288 257 245 243 245 247 251 258 257 248 245 252 260 263 266 274 284 291 298 303 306 304 299 292 286 284 283 278 272 266 261 254 247 243 245 254 267 279 290 302 313 325 341 354 1 2 1 0 4 7 8 9 10 11 14 17 20 24 27
302 315 326 331 329 324 322 323 318 301 283 281 288 291 292 298 303 304 309 318 323 321 318 316 314 312 313 317 317 299 268 251 246 246 249 253 253 250 250 253 259 264 268 273 280 289 297 303 306 303 298 290 283 280 279 276 272 265 258 251 244 239 239 244 253 264 276 286 295 306 319 334 347 356 358 358 0 4 5 5 5 5 6 7 10 14 17
303 313 327 337 337 331 327 328 327 313 291 281 284 288 291 298 304 305 308 315 320 322 322 320 316 312 308 306 308 314 312 291 263 252 249 249 249 249 250 253 256 260 264 268 275 287 298 304 305 302 296 288 280 277 276 273 269 265 258 251 243 237 235 236 242 252 263 273 282 290 300 311 324 339 349 352 354 357 0 2 3 2 2 2 3 5 8
305 313 324 332 334 332 331 331 331 324 306 289 282 282 286 293 299 301 303 306 310 314 318 318 316 314 312 308 304 303 310 314 301 279 263 252 247 246 248 249 250 252 257 263 273 285 296 303 304 302 295 286 277 273 271 269 267 264 259 252 244 237 233 233 236 242 250 260 270 279 287 297 308 321 334 342 344 346 349 353 356 357 358 360 359 359 1
306 314 323 327 329 332 332 329 329 328 318 301 288 281 279 284 291 295 296 297 299 301 304 307 308 310 310 311 310 304 297 300 307 304 284 259 246 242 242 242 243 247 253 260 270 282 293 301 305 302 294 285 276 270 267 265 264 263 260 254 247 240 235 233 234 237 241 248 257 265 274 284 295 308 320 330 336 337 339 342 345 346 349 352 353 353 354
308 313 318 322 325 329 329 328 330 329 319 307 298 288 282 285 292 294 294 293 293 294 295 296 297 300 301 303 305 304 300 300 305 307 288 259 243 239 239 238 239 244 251 257 266 278 290 299 304 301 293 285 276 268 263 263 262 261 259 256 250 244 239 236 234 235 236 240 246 253 262 270 281 294 306 316 325 329 330 332 335 336 338 341 343 344 346
309 310 313 317 321 325 327 328 330 330 322 314 310 305 299 298 297 296 296 295 292 289 289 290 290 291 293 293 294 297 298 300 301 301 290 265 243 236 235 232 232 240 249 256 264 275 285 295 300 298 293 286 277 267 262 261 260 259 258 257 253 247 242 239 236 236 237 239 242 246 253 261 269 280 292 302 310 317 320 323 324 326 327 330 332 334 337
309 311 314 316 319 322 323 323 324 325 322 319 315 311 308 304 300 296 294 293 290 286 285 287 288 289 287 286 286 288 290 292 293 295 294 280 256 242 235 231 232 239 248 255 263 270 279 288 294 295 292 285 276 267 262 260 259 258 258 258 256 252 246 241 238 237 238 240 242 245 250 256 262 269 279 290 297 303 308 313 315 316 318 320 322 325 328
310 312 314 315 317 319 320 320 320 320 317 315 314 312 309 306 303 299 296 293 291 288 285 285 287 288 286 283 281 281 283 286 287 287 291 291 276 251 235 229 231 239 246 252 258 265 274 281 287 290 291 287 278 269 263 259 258 258 259 260 259 256 251 246 242 240 239 240 242 245 249 254 258 263 270 279 287 292 297 302 306 308 310 312 314 317 320
310 311 312 315 316 317 316 317 318 318 316 314 312 311 309 307 306 305 303 300 296 293 291 290 290 288 285 281 279 277 278 282 284 282 282 288 284 260 235 224 226 234 241 246 252 260 267 273 278 283 287 286 280 272 265 261 259 259 260 260 260 259 255 250 245 243 241 241 243 245 248 252 257 261 265 271 277 283 288 292 296 300 303 305 307 309 313
305 307 309 311 312 313 315 316 317 318 317 315 313 311 311 310 308 307 306 305 302 299 298 298 297 295 290 285 280 277 276 276 278 277 275 278 281 270 245 228 226 232 238 243 249 256 261 266 271 276 281 283 281 273 266 263 261 260 260 260 259 259 257 254 251 247 244 243 243 245 248 251 255 259 263 266 270 274 279 283 288 291 295 297 300 302 306
295 300 305 308 310 313 316 318 318 319 320 320 318 316 315 314 313 312 311 309 306 304 303 302 302 301 298 291 285 281 277 273 272 273 271 271 274 271 252 236 232 235 241 245 249 253 257 261 265 268 272 276 277 273 267 263 261 260 259 259 259 258 258 257 255 252 249 247 246 246 247 250 253 256 259 263 266 269 272 276 279 283 286 289 292 295 299
288 296 301 305 310 315 317 317 317 320 323 324 323 323 321 318 314 312 311 309 306 305 304 304 305 305 303 297 291 286 279 272 269 268 267 266 269 269 254 240 236 238 243 246 249 251 254 257 260 262 264 267 271 270 266 262 260 259 257 257 257 257 256 256 256 255 253 251 249 248 248 250 251 253 256 259 262 265 267 269 273 276 279 282 285 288 292
283 292 297 302 308 313 314 313 315 319 322 323 324 324 321 316 311 309 307 305 302 302 302 303 305 307 307 303 298 291 284 276 270 266 266 266 268 266 254 242 238 241 246 249 250 251 252 253 255 256 258 261 265 267 265 261 259 258 257 256 256 256 255 254 253 253 252 250 248 248 249 251 252 253 255 257 259 261 263 266 268 270 273 275 278 282 286
281 287 292 298 303 306 308 312 317 319 319 319 319 320 317 312 308 306 303 301 300 301 302 302 303 305 305 304 302 298 292 285 277 271 268 268 267 264 256 245 241 243 245 247 249 251 252 253 254 255 257 259 261 263 264 262 259 258 257 256 256 255 254 253 251 250 249 247 246 247 249 252 255 256 256 256 258 259 261 263 265 267 269 271 273 276 280
281 285 290 294 297 301 307 313 317 318 316 313 312 314 313 309 303 301 300 300 301 301 300 299 300 300 300 300 299 298 296 292 286 279 272 268 266 264 259 251 245 242 242 243 246 250 252 253 254 255 257 257 258 260 262 261 260 258 257 256 256 255 254 252 250 248 247 247 247 248 250 252 254 256 257 258 258 259 259 260 262 264 266 267 269 272 275
286 290 294 296 300 304 309 312 313 312 310 309 308 310 310 305 300 298 298 298 297 295 294 293 294 294 295 295 294 294 293 292 290 286 280 274 269 266 263 258 253 248 244 240 240 244 248 251 252 254 255 254 255 257 260 262 262 261 258 257 256 256 254 251 249 248 247 247 248 249 250 252 253 255 257 258 258 258 259 259 260 261 263 265 267 268 271